Stations météo

Publicité
Grenoble/St.Geoirs, France (7486): Température de l'air & dewpoint: 14.10.2018 21:00:00 - 20.10.2018 21:00:00 (CEST)Grenoble/St.Geoirs, France (7486): Température de l'air 5cm: 14.10.2018 21:00:00 - 20.10.2018 21:00:00 (CEST)Grenoble/St.Geoirs, France (7486): Température de l'air -20cm & Température de l'air -100cm: 14.10.2018 21:00:00 - 20.10.2018 21:00:00 (CEST)Grenoble/St.Geoirs, France (7486): Vitesse du vent & gusts: 14.10.2018 21:00:00 - 20.10.2018 21:00:00 (CEST)Grenoble/St.Geoirs, France (7486): Direction du vent: 14.10.2018 21:00:00 - 20.10.2018 21:00:00 (CEST)Grenoble/St.Geoirs, France (7486): reduced air pressure: 14.10.2018 21:00:00 - 20.10.2018 21:00:00 (CEST)Grenoble/St.Geoirs, France (7486): visibility: 14.10.2018 21:00:00 - 20.10.2018 21:00:00 (CEST)Grenoble/St.Geoirs, France (7486): Ensoleillement: 14.10.2018 21:00:00 - 20.10.2018 21:00:00 (CEST)Grenoble/St.Geoirs, France (7486): Quantités de précipitations: 14.10.2018 21:00:00 - 20.10.2018 21:00:00 (CEST)
Date & Time tt [°C] td [°C] tt 5cm [°C] tt -20cm [°C] tt -100cm [°C] ff [km/h] ff [knt] fx [km/h] fx [knt] dd ppp [hPa] vv [km] sd [min] rr [mm]
20.10.2018 21:00:00 - - - - - - - - - - - - - -
20.10.2018 20:00:00 12,9 9,2 7,6 15,2 16,4 4 2 11 6 NNE 1026,1 4,9 0 0,0
20.10.2018 19:00:00 14,3 9,3 10,1 15,1 16,4 6 3 22 12 NNW 1025,0 6 22 0,0
20.10.2018 18:00:00 16,5 9,9 16,7 15,0 16,4 13 7 19 10 NNW 1024,4 8 60 0,0
20.10.2018 17:00:00 18,1 10,0 21,4 14,8 16,4 14 8 22 12 NNW 1024,0 7 60 0,0
20.10.2018 16:00:00 18,2 10,6 22,9 14,7 16,4 8 5 26 14 NE 1024,2 6 60 0,0
20.10.2018 15:00:00 18,1 10,5 23,9 14,7 16,4 15 8 28 15 N 1024,4 6 60 0,0
20.10.2018 14:00:00 18,0 10,8 20,4 14,6 16,4 11 6 21 12 N 1024,6 6 35 0,0
20.10.2018 13:00:00 17,9 10,8 21,8 14,7 16,5 5 3 10 5 W 1025,2 5 60 0,0
20.10.2018 12:00:00 15,9 10,4 18,0 14,7 16,5 2 1 10 6 ESE 1025,8 5 60 0,0
20.10.2018 11:00:00 12,9 9,9 12,9 14,8 16,5 6 3 11 6 SW 1026,6 4,7 34 0,0
20.10.2018 10:00:00 10,9 9,7 9,4 14,9 16,5 4 2 8 4 SSW 1026,9 4,0 60 0,0
20.10.2018 09:00:00 8,7 7,9 4,7 15,0 16,5 5 3 10 6 ESE 1026,4 1,9 31 0,0
20.10.2018 08:00:00 6,6 5,5 3,0 15,1 16,5 5 3 10 6 SE 1025,7 1,4 0 0,0
20.10.2018 07:00:00 6,0 5,0 4,1 15,2 16,5 8 4 12 6 E 1024,9 0,8 0 0,0
20.10.2018 06:00:00 6,9 5,8 3,4 15,4 16,5 8 4 11 6 E 1024,7 1,7 0 0,0
20.10.2018 05:00:00 6,6 5,5 4,5 15,4 16,5 7 4 10 6 E 1024,3 1,5 0 0,0
20.10.2018 04:00:00 7,9 7,0 5,7 15,5 16,5 8 4 11 6 E 1023,7 1,7 0 0,0
20.10.2018 03:00:00 7,8 6,6 4,9 15,6 16,5 9 5 13 7 E 1023,7 2,5 0 0,0
20.10.2018 02:00:00 8,5 7,1 4,4 15,7 16,5 6 3 8 5 E 1023,8 2,6 0 0,0
20.10.2018 01:00:00 9,3 7,7 5,6 15,7 16,5 3 2 9 5 NE 1023,6 4,7 0 0,0
20.10.2018 00:00:00 9,9 8,0 6,2 15,7 16,5 3 2 9 5 E 1023,2 6 0 0,0
19.10.2018 23:00:00 10,8 8,9 6,4 15,7 16,5 3 2 14 8 NNW 1022,6 7 0 0,0
19.10.2018 22:00:00 11,6 8,6 8,6 15,7 16,5 5 3 9 5 E 1022,0 7 0 0,0
19.10.2018 21:00:00 13,8 10,0 9,0 15,7 16,5 4 2 12 6 NNE 1021,0 8 0 0,0
19.10.2018 20:00:00 14,2 9,8 9,4 15,6 16,5 5 3 9 5 SE 1020,6 10 0 0,0
19.10.2018 19:00:00 16,5 9,7 12,3 15,5 16,5 6 3 15 8 NNE 1019,6 11 9 0,0
19.10.2018 18:00:00 19,3 10,3 19,1 15,4 16,6 11 6 21 11 N 1018,5 12 45 0,0
19.10.2018 17:00:00 20,5 9,7 22,1 15,2 16,5 8 4 18 10 NE 1018,1 11 28 0,0
19.10.2018 16:00:00 21,0 9,9 25,8 15,1 16,6 10 6 20 11 NNE 1018,0 11 60 0,0
19.10.2018 15:00:00 21,3 10,1 27,8 15,0 16,5 6 4 17 9 NW 1018,1 11 60 0,0
19.10.2018 14:00:00 20,6 10,1 25,9 15,0 16,6 7 4 18 10 NNE 1018,4 12 60 0,0
19.10.2018 13:00:00 19,6 10,3 23,8 15,0 16,6 9 5 20 11 E 1018,7 12 60 0,0
19.10.2018 12:00:00 18,3 10,1 20,2 15,1 16,5 8 5 16 8 ENE 1019,2 9 60 0,0
19.10.2018 11:00:00 16,4 10,0 17,3 15,2 16,6 9 5 16 9 E 1019,5 9 60 0,0
19.10.2018 10:00:00 11,9 9,8 9,2 15,3 16,6 5 3 8 4 NW 1020,0 7 60 0,0
19.10.2018 09:00:00 8,7 7,6 5,5 15,4 16,6 3 2 7 4 S 1020,0 3,2 28 0,0
19.10.2018 08:00:00 8,0 6,9 4,3 15,5 16,6 5 3 11 6 ESE 1019,5 5 0 0,0
19.10.2018 07:00:00 7,8 6,7 4,1 15,6 16,6 4 2 8 5 SE 1019,1 6 0 0,0
19.10.2018 06:00:00 7,1 5,9 4,5 15,7 16,6 4 2 11 6 NE 1019,3 6 0 0,0
19.10.2018 05:00:00 7,8 6,9 4,8 15,8 16,6 8 5 12 7 ENE 1018,9 5 0 0,0
19.10.2018 04:00:00 8,3 7,2 5,2 15,9 16,6 3 2 6 3 ENE 1018,8 5 0 0,0
19.10.2018 03:00:00 8,9 7,8 4,7 16,0 16,6 5 3 9 5 SE 1018,5 5 0 0,0
19.10.2018 02:00:00 8,6 7,2 5,1 16,1 16,6 3 2 10 5 E 1018,6 6 0 0,0
19.10.2018 01:00:00 7,8 5,9 5,5 16,1 16,6 8 4 10 5 ESE 1018,5 6 0 0,0
19.10.2018 00:00:00 9,6 7,7 7,0 16,2 16,6 8 4 12 6 E 1018,1 7 0 0,0
18.10.2018 23:00:00 9,5 7,3 7,1 16,2 16,6 9 5 11 6 ESE 1017,7 7 0 0,0
18.10.2018 22:00:00 11,0 8,6 8,4 16,2 16,6 9 5 12 7 E 1017,3 7 0 0,0
18.10.2018 21:00:00 12,0 8,1 8,6 16,2 16,6 6 3 13 7 E 1017,0 10 0 0,0
18.10.2018 20:00:00 13,9 8,9 10,4 16,1 16,6 6 4 11 6 SE 1016,5 11 0 0,0
18.10.2018 19:00:00 16,7 9,1 12,4 16,0 16,6 5 3 15 8 NE 1015,4 13 0 0,0
18.10.2018 18:00:00 18,7 9,2 18,3 15,9 16,6 13 7 25 14 NNW 1014,6 14 39 0,0
18.10.2018 17:00:00 20,3 8,9 23,3 15,7 16,6 17 9 24 13 NNW 1014,3 11 52 0,0
18.10.2018 16:00:00 21,2 9,4 26,3 15,6 16,6 14 8 25 14 N 1013,9 12 60 0,0
18.10.2018 15:00:00 21,3 9,8 27,2 15,5 16,6 11 6 24 13 N 1014,1 10 60 0,0
18.10.2018 14:00:00 20,5 9,1 26,3 15,5 16,6 9 5 24 13 WNW 1014,9 14 60 0,0
18.10.2018 13:00:00 19,9 9,7 23,0 15,5 16,6 6 3 31 17 ENE 1015,4 12 60 0,0
18.10.2018 12:00:00 18,9 9,4 21,9 15,5 16,7 14 8 26 14 NNE 1015,8 11 60 0,0
18.10.2018 11:00:00 16,5 9,9 20,0 15,6 16,6 5 3 10 5 W 1016,7 11 60 0,0
18.10.2018 10:00:00 14,3 10,3 13,5 15,6 16,7 2 1 6 3 WSW 1016,8 10 37 0,0
18.10.2018 09:00:00 12,5 9,9 9,2 15,7 16,7 5 3 12 6 ESE 1016,8 8 35 0,0
18.10.2018 08:00:00 10,3 8,9 8,9 15,8 16,7 4 2 10 5 NE 1016,6 7 0 0,0
18.10.2018 07:00:00 10,3 8,9 8,6 15,9 16,6 3 2 10 5 ESE 1016,5 7 0 0,0
18.10.2018 06:00:00 9,7 8,1 7,8 16,0 16,6 8 4 10 6 E 1016,5 6 0 0,0
18.10.2018 05:00:00 10,0 8,6 8,2 16,0 16,7 5 3 10 5 NNE 1016,5 7 0 0,0
18.10.2018 04:00:00 9,7 8,1 7,8 16,1 16,7 9 5 10 6 E 1016,7 7 0 0,0
18.10.2018 03:00:00 10,3 8,6 7,6 16,1 16,7 5 3 9 5 ENE 1016,9 6 0 0,0
18.10.2018 02:00:00 11,1 9,0 8,6 16,2 16,7 3 2 10 6 SW 1016,7 9 0 0,0
18.10.2018 01:00:00 11,6 9,5 10,5 16,3 16,7 9 5 11 6 E 1016,8 8 0 0,0
18.10.2018 00:00:00 11,6 9,5 9,4 16,3 16,7 6 4 8 5 ESE 1016,9 10 0 0,0
17.10.2018 23:00:00 11,1 9,2 8,3 16,3 16,7 5 3 10 5 E 1016,9 11 0 0,0
17.10.2018 22:00:00 12,0 9,0 8,9 16,3 16,7 5 3 9 5 E 1016,8 10 0 0,0
17.10.2018 21:00:00 13,6 9,4 10,3 16,3 16,7 6 4 12 6 E 1016,4 12 0 0,0
17.10.2018 20:00:00 14,8 8,7 10,5 16,2 16,7 3 2 9 5 ESE 1015,8 14 0 0,0
17.10.2018 19:00:00 17,9 8,5 11,6 16,1 16,7 0 0 12 6 N 1015,1 11 19 0,0
17.10.2018 18:00:00 20,4 9,3 20,0 16,0 16,7 10 5 19 10 NNW 1014,5 16 60 0,0
17.10.2018 17:00:00 21,4 9,6 25,4 15,8 16,7 13 7 23 13 NW 1014,3 22 60 0,0
17.10.2018 16:00:00 21,9 9,4 28,1 15,7 16,7 11 6 22 12 NNW 1014,2 18 60 0,0
17.10.2018 15:00:00 21,8 8,7 28,5 15,6 16,7 8 4 17 9 NW 1014,8 18 60 0,0
17.10.2018 14:00:00 21,4 7,6 26,5 15,6 16,7 8 4 18 10 NNE 1015,5 13 60 0,0
17.10.2018 13:00:00 20,7 9,3 25,5 15,6 16,7 6 3 13 7 NNW 1016,5 14 60 0,0
17.10.2018 12:00:00 18,8 10,9 22,2 15,7 16,7 4 2 9 5 SE 1017,2 12 60 0,0
17.10.2018 11:00:00 14,6 10,8 14,7 15,8 16,7 3 2 8 4 NNW 1018,0 9 60 0,0
17.10.2018 10:00:00 11,0 10,2 8,8 15,9 16,7 3 2 7 4 WSW 1018,6 8 13 0,0
17.10.2018 09:00:00 9,0 8,1 5,5 16,1 16,8 7 4 9 5 ESE 1019,0 6 0 0,0
17.10.2018 08:00:00 7,8 6,7 4,9 16,1 16,7 6 4 12 7 ESE 1019,0 5 0 0,0
17.10.2018 07:00:00 8,4 7,0 4,5 16,2 16,7 6 3 8 4 ENE 1019,0 6 0 0,0
17.10.2018 06:00:00 9,4 8,3 6,4 16,3 16,7 3 2 12 6 SSE 1018,8 8 0 0,0
17.10.2018 05:00:00 9,6 8,2 7,3 16,4 16,7 6 3 12 6 ENE 1018,5 8 0 0,0
17.10.2018 04:00:00 9,9 8,5 8,2 16,4 16,7 9 5 12 6 ENE 1018,6 7 0 0,0
17.10.2018 03:00:00 11,1 9,2 9,1 16,4 16,7 9 5 11 6 E 1019,1 6 0 0,0
17.10.2018 02:00:00 12,5 10,6 10,9 16,5 16,7 8 5 12 7 E 1019,1 7 0 0,0
17.10.2018 01:00:00 12,7 10,8 11,0 16,5 16,8 6 3 11 6 ENE 1019,3 9 0 0,0
17.10.2018 00:00:00 12,8 10,5 11,2 16,5 16,7 7 4 10 5 E 1019,6 10 0 0,0
16.10.2018 23:00:00 14,0 11,3 12,0 16,5 16,7 6 4 9 5 E 1019,6 10 0 0,0
16.10.2018 22:00:00 15,5 11,1 12,7 16,5 16,8 2 1 6 4 E 1019,2 11 0 0,0
16.10.2018 21:00:00 16,6 11,3 13,9 16,4 16,7 5 3 11 6 W 1018,7 14 0 0,0
16.10.2018 20:00:00 17,5 11,5 15,4 16,3 16,8 4 2 10 5 NNW 1018,3 15 0 0,0
16.10.2018 19:00:00 19,0 10,5 17,8 16,2 16,7 7 4 12 6 S 1017,7 16 0 0,0
16.10.2018 18:00:00 20,7 9,3 20,2 16,1 16,8 6 4 15 8 WSW 1017,0 19 10 0,0
16.10.2018 17:00:00 22,3 9,1 25,8 16,0 16,8 9 5 16 8 W 1016,7 24 60 0,0
16.10.2018 16:00:00 22,4 8,9 23,7 15,9 16,8 7 4 18 10 WSW 1016,8 21 46 0,0
16.10.2018 15:00:00 21,3 8,5 23,8 15,9 16,8 6 3 16 9 WSW 1017,1 19 22 0,0
16.10.2018 14:00:00 20,8 6,7 26,2 15,8 16,8 8 4 20 11 W 1017,6 21 53 0,0
16.10.2018 13:00:00 20,1 10,2 20,8 15,8 16,8 4 2 10 5 SW 1018,0 17 40 0,0
16.10.2018 12:00:00 17,1 11,1 17,4 15,9 16,8 5 3 10 6 E 1018,4 14 1 0,0
16.10.2018 11:00:00 16,6 10,9 15,9 16,0 16,8 7 4 16 9 E 1018,2 12 36 0,0
16.10.2018 10:00:00 15,3 11,9 10,3 16,0 16,8 12 6 17 9 E 1018,1 10 23 0,0
16.10.2018 09:00:00 10,4 9,3 8,0 16,1 16,8 11 6 15 8 ESE 1018,4 9 0 0,0
16.10.2018 08:00:00 9,3 8,2 6,9 16,2 16,8 11 6 13 7 E 1018,2 7 0 0,0
16.10.2018 07:00:00 10,0 8,8 7,9 16,2 16,8 10 6 14 8 E 1018,0 8 0 0,0
16.10.2018 06:00:00 10,5 9,1 8,8 16,3 16,8 11 6 14 8 E 1017,6 6 0 0,0
16.10.2018 05:00:00 12,8 11,0 11,9 16,3 16,8 9 5 13 7 E 1017,1 7 0 0,0
16.10.2018 04:00:00 12,6 11,0 11,3 16,4 16,8 9 5 11 6 E 1017,0 7 0 0,0
16.10.2018 03:00:00 13,3 11,4 12,4 16,4 16,8 5 3 11 6 NE 1016,9 10 0 0,0
16.10.2018 02:00:00 12,9 11,3 10,0 16,4 16,8 8 4 11 6 NE 1016,8 7 0 0,0
16.10.2018 01:00:00 12,5 10,7 9,7 16,5 16,8 5 3 9 5 E 1016,3 7 0 0,0
16.10.2018 00:00:00 13,6 11,5 12,3 16,5 16,8 7 4 8 5 S 1015,8 9 0 0,0
15.10.2018 23:00:00 13,5 11,4 10,6 16,5 16,8 7 4 8 5 NNW 1015,4 12 0 0,0
15.10.2018 22:00:00 14,5 11,6 13,2 16,5 16,8 6 3 10 5 S 1014,6 11 0 0,0
15.10.2018 21:00:00 14,9 11,7 13,5 16,4 16,8 6 3 19 10 NNE 1013,9 12 0 0,0
15.10.2018 20:00:00 15,5 11,5 13,8 16,4 16,8 12 6 16 9 ENE 1012,9 11 0 0,0
15.10.2018 19:00:00 17,3 9,9 13,9 16,3 16,8 4 2 11 6 WSW 1012,9 17 0 0,0
15.10.2018 18:00:00 18,0 10,1 17,2 16,2 16,8 9 5 13 7 WNW 1012,2 6 0 0,0
15.10.2018 17:00:00 20,0 8,0 20,1 16,1 16,8 7 4 16 9 WNW 1011,5 16 0 0,0
15.10.2018 16:00:00 20,9 6,8 21,9 16,0 16,8 9 5 19 11 WNW 1011,1 23 6 0,0
15.10.2018 15:00:00 21,4 7,2 22,6 15,9 16,9 14 8 21 11 NW 1010,7 21 0 0,0
15.10.2018 14:00:00 21,4 6,5 22,9 15,8 16,8 11 6 18 10 SW 1010,9 23 7 0,0
15.10.2018 13:00:00 22,2 6,0 26,6 15,8 16,8 4 2 16 8 S 1010,9 7 57 0,0
15.10.2018 12:00:00 21,3 6,4 24,3 15,9 16,8 9 5 16 9 E 1010,8 20 60 0,0
15.10.2018 11:00:00 18,3 8,5 17,6 16,0 16,8 5 3 11 6 ESE 1011,2 17 37 0,0
15.10.2018 10:00:00 14,8 10,2 10,8 16,1 16,8 4 2 14 8 E 1011,4 16 33 0,0
15.10.2018 09:00:00 10,4 9,0 5,7 16,2 16,8 9 5 16 8 E 1012,0 8 14 0,0
15.10.2018 08:00:00 8,4 7,0 5,0 16,3 16,9 9 5 13 7 E 1012,2 6 0 0,0
15.10.2018 07:00:00 10,1 7,7 5,0 16,4 16,9 2 1 11 6 S 1012,0 10 0 0,0
15.10.2018 06:00:00 9,7 7,8 7,2 16,4 16,8 7 4 12 7 E 1011,9 9 0 0,0
15.10.2018 05:00:00 10,0 7,9 8,2 16,5 16,8 11 6 16 9 E 1012,0 8 0 0,0
15.10.2018 04:00:00 10,7 8,3 8,9 16,5 16,9 11 6 16 9 E 1012,5 11 0 0,0
15.10.2018 03:00:00 12,2 8,5 10,4 16,5 16,9 10 6 16 9 ENE 1012,8 12 0 0,0
15.10.2018 02:00:00 14,2 8,8 12,1 16,6 16,9 8 4 11 6 E 1012,6 13 0 0,0
15.10.2018 01:00:00 16,4 8,4 14,6 16,6 16,8 5 3 19 10 ENE 1012,5 15 0 0,0
15.10.2018 00:00:00 16,7 8,6 14,4 16,6 16,9 9 5 25 13 SSE 1012,5 15 0 0,0
14.10.2018 23:00:00 16,9 9,1 15,0 16,6 16,9 3 2 21 11 E 1012,6 16 0 0,0
14.10.2018 22:00:00 17,4 9,0 15,7 16,6 16,9 5 3 31 17 NNW 1012,2 17 0 0,0
14.10.2018 21:00:00 18,1 9,2 17,1 16,6 16,9 15 8 32 18 SSW 1011,5 18 0 0,0

tt = Température de l'air
td = dewpoint
tt 5cm = Température de l'air 5cm
tt -20cm = Température de l'air -20cm
tt -100cm = Température de l'air -100cm
ff = Vitesse du vent
fx = gusts
dd = Direction du vent
ppp = reduced air pressure
vv = visibility
sd = Ensoleillement
rr = Quantités de précipitations

stations d'obs. à proximité